www.pogodaiklimat.ru

Погода и климат >> Архив погоды >> Аргентина >> Санкт-Роза


ПОГОДА в Санкт-Розе

  • Прогноз погоды в Санкт-Розе
  • Монитор погоды в Санкт-Розе

АРХИВ ПОГОДЫ в Санкт-Розе

Время (UTC), дата Ветер
(напр.,м/с)
 
Видим.   Явления Облачность Т
(С)
Тd
(С)
f
(%)
Тe
(С)
Тes
(С)
Комфортность P
(гПа)
Po
(гПа)
Тmin
(С)
Tmax
(С)
R
(мм)
R24
(мм)
S
(см)
09 12.04 С 5 30 км ясно +10.4 +7.5 82 +7 +7 1015.5 993.0
12 12.04 С 6 30 км 1/0
[Ci sp]
+12.5 +8.1 75 +10 +11 1016.1 993.3 +8.8 +15.3
15 12.04 С 9 30 км ясно +21.8 +7.5 40 +23 +24 комфорт 1013.7 991.3
18 12.04 С 10 30 км ясно +26.5 +9.5 34 +27 +27 жарко 1009.0 986.6
21 12.04 С 8 30 км ясно +26.0 +11.6 41 +27 +27 жарко 1006.0 983.8
00 13.04 С 6 30 км ясно +20.7 +11.2 54 +22 +22 комфорт 1006.4 984.1 +11.3 +27.6
03 13.04 С 8 30 км 8/0
[Ci sp]
+18.7 +12.5 67 +19 +19 1006.0 983.8
06 13.04 С 5 6000 м дым 6/0
[Cs]
+18.4 +11.6 65 +19 +19 1005.7 983.8
09 13.04 СЗ 2 30 км 4/0
[Ci sp]
+15.6 +11.4 76 +16 +16 1006.9 984.9
12 13.04 ЮВ 4 30 км 10/3 2000 м
[Sc Ac As Ci sp]
+17.4 +9.3 59 +17 +17 1008.9 986.6 +13.0 +20.7
15 13.04 ЮВ 4 30 км 10/1 2000 м
[Sc Ac As Ci sp]
+19.9 +3.4 34 +20 +23 1010.4 988.2
18 13.04 В 4 30 км 10/0
[Ac As Ci sp]
+23.0 +0.6 23 +22 +24 комфорт 1008.3 986.2
21 13.04 В 3 30 км 10/0
[Ac As Ci sp]
+21.5 +3.9 31 +22 +22 комфорт 1006.7 984.5
00 14.04 Ю 1 4000 м дым 10/0
[Ac As Cs]
+17.6 +8.6 56 +19 +19 1007.6 985.3 +17.4 +23.6
03 14.04 З 1 5000 м дым ясно +15.1 +8.5 65 +16 +16 1009.2 986.9
06 14.04 ЮЗ 2 5000 м дым ясно +12.7 +7.4 70 +12 +12 1010.2 987.8
09 14.04 Ю 4 30 км ясно +12.5 +4.2 57 +11 +11 1012.2 989.8
12 14.04 Ю 2 30 км ясно +13.1 +2.2 48 +13 +14 1015.3 992.6 +10.7 +17.6
15 14.04 Ю 5 30 км 9/0
[Ci sp]
+20.3 +2.5 31 +21 +24 комфорт 1016.9 994.4
18 14.04 Ю 3 30 км 1/0
[Ci fib]
+23.4 +0.7 22 +22 +29 комфорт 1015.8 993.4
21 14.04 С 1 30 км 9/0
[Ci sp]
+22.1 +4.3 31 +22 +23 комфорт 1015.7 993.2
00 15.04 С 1 5000 м дым 9/0
[Cs]
+14.9 +3.1 45 +16 +16 1017.4 994.6 +13.1 +23.8
03 15.04 Ю 1 30 км 10/3 1350 м
[Sc Ac As Cs]
+14.7 +3.6 47 +15 +15 1019.0 996.4
06 15.04 ЮВ 2 30 км {дождь} 10/3 1200 м
[Sc Ac As Cs]
+14.1 +8.2 68 +14 +14 1019.8 997.3 0.0
09 15.04 ЮВ 2 30 км 3/0
[Ci sp]
+9.9 +6.7 80 +8 +8 1021.3 998.6
12 15.04 штиль 0 30 км 1/0
[Ci sp]
+9.5 +7.0 84 +9 +10 1023.8 1000.6 +7.0 +14.9 0.0
15 15.04 С 6 30 км ясно +20.7 +8.7 46 +22 +25 комфорт 1024.3 1001.6
18 15.04 СЗ 3 30 км ясно +23.5 +7.5 36 +24 +31 комфорт 1022.3 999.8
21 15.04 С 4 30 км ясно +22.1 +6.9 37 +23 +23 комфорт 1021.7 999.0
00 16.04 С 3 30 км ясно +15.4 +7.9 61 +15 +15 1023.5 1000.5 +9.5 +24.5
03 16.04 С 5 30 км ясно +13.5 +9.4 76 +12 +12 1022.8 1000.1
06 16.04 СЗ 3 30 км ясно +11.5 +10.1 91 +10 +10 1021.5 998.9
09 16.04 С 6 800 м туман ясно +10.3 +9.9 97 +7 +7 1019.6 996.9
12 16.04 С 6 5000 м дымка {туман} 10/10 150 м
[St]
+12.5 +11.6 94 +10 +10 1019.7 996.9 +8.5 +15.4
15 16.04 С 12 8000 м пыльный позёмок 4/1 1200 м
[Cu hum Ci sp]
+21.2 +11.8 55 +23 +23 комфорт 1017.2 994.6
18 16.04 С 10 9000 м пыльный позёмок 5/0
[Ci sp]
+24.7 +12.7 47 +27 +27 жарко 1013.7 991.3
21 16.04 С 9 30 км 6/0
[Ci sp]
+23.8 +12.4 49 +26 +26 жарко 1011.9 989.4
00 17.04 С 7 30 км 6/0
[Cs]
+19.6 +12.2 62 +20 +20 1012.3 989.8 +12.5 +26.5
03 17.04 С 7 30 км 9/0
[Cs]
+17.1 +10.0 63 +16 +16 1012.6 990.2
06 17.04 С 6 30 км 5/0
[Ci sp]
+16.0 +11.8 76 +15 +15 1011.8 989.6
09 17.04 СЗ 3 30 км 8/0
[Cs]
+14.5 +11.7 83 +14 +14 1011.2 988.9
12 17.04 С 4 30 км 10/0
[Cs]
+14.6 +11.9 84 +13 +14 1012.3 989.8 +13.4 +19.6
15 17.04 З 3 30 км 10/0
[Cs]
+23.9 +13.4 52 +26 +32 жарко 1012.4 990.2
18 17.04 СВ 2 30 км 6/0
[Ci sp]
+28.2 +14.7 44 +31 +38 душно 1009.7 987.7
21 17.04 С 3 30 км 6/1 1500 м
[Sc diur, vesp Ci sp]
+27.9 +14.9 45 +30 +31 жарко 1009.1 987.0
00 18.04 С 2 30 км 6/0
[Cs]
+20.6 +13.9 65 +24 +24 комфорт 1011.3 988.9 +14.6 +30.3
03 18.04 В 1 30 км 3/0
[Ci sp]
+17.3 +13.6 79 +19 +19 1011.6 989.4
06 18.04 С 2 30 км 3/0
[Ci sp]
+15.1 +13.0 87 +15 +15 1011.1 989.0
09 18.04 С 2 6000 м дымка туман 5/0
[Cs]
+12.7 +11.6 93 +12 +12 1009.9 987.8
12 18.04 С 3 5000 м дымка 8/0
[Cs]
+13.5 +12.8 96 +12 +13 1010.1 988.1 +9.9 +20.9
15 18.04 С 2 30 км 9/0
[Ac As Cs]
+23.7 +15.7 61 +27 +33 жарко 1010.1 988.0
18 18.04 СЗ 3 30 км 6/1 1350 м
[Cu hum Ci sp]
+29.4 +16.2 45 +33 +38 душно 1007.3 985.4
21 18.04 З 1 30 км 9/0
[Ac As Ci sp]
+27.9 +15.7 47 +31 +31 душно 1006.9 984.8
00 19.04 СЗ 2 15 км пыль 6/0
[Ac As Ci sp]
+21.8 +15.2 66 +25 +25 комфорт 1008.3 986.0 +13.5 +29.6
03 19.04 СЗ 2 30 км 9/0
[Cs]
+19.3 +14.5 74 +21 +21 комфорт 1009.5 987.4
06 19.04 З 2 30 км ясно +15.4 +12.9 85 +15 +15 1009.8 987.8

 

Местоположение метеостанции Санкт-Роза (Аргентина): широта -36.56 долгота -64.26 высота над уровнем моря 191 м.

В архиве по умолчанию представлена погода в Санкт-Розе за последнюю неделю. Архивные данные за месяц целиком и за предыдущие месяцы, начиная с января 2011 года, Вы можете получить, выбрав интересующий диапазон дат из раскрывающегося списка и нажав кнопку "Ввод!".


*Определитесь, кто Вы:
робот инопланетянин человек

Внимание! Время в таблицах - всемирное. Для получения местного времени необходимо прибавить поправку, которая равна -3 ч.

Смотрите также архив погоды в соседних городах и на ближайших метеорологических станциях:

Погода в Хенераль Пико (Аргентина) (106 км)
Погода в Лабоулайе (Аргентина) (282 км)
Погода в Боливаре (Аргентина) (288 км)
Погода в Баия-Бланке (Аргентина) (304 км)
Погода в Вилья Рейнольдс (Аргентина) (331 км)
Погода в Хунине (Аргентина) (377 км)
Погода в Рио-Куарто (Аргентина) (386 км)
Погода в Азуле (Аргентина) (392 км)
Погода в Трес Арройос (Аргентина) (405 км)
Погода в Сан-Луисе (Аргентина) (414 км)

Пояснения к столбцам:

Ветер - указаны скорость ветра в м/с - средняя за 10 мин, порывы в срок и между сроками (в фигурных скобках) и направление, откуда дует ветер: С - северный, СВ - северо-восточный, В - восточный, ЮВ - юго-восточный, Ю - южный, ЮЗ - юго-западный, З - западный, СЗ - северо-западный.
Видимость - горизонтальная дальность видимости в метрах или километрах. При видимости от 1 до 10 км при отсутствии осадков обычно наблюдается дымка, при ухудшении видимости до 1 км и менее - туман. В сухую погоду видимость может ухудшаться дымом, пылью или мглою.
Явления - указаны атмосферные явления, наблюдавшиеся в срок или в последний час перед сроком; фигурными скобками обозначены явления, наблюдавшиеся между сроками (за 1-3 часа до срока); квадратными скобками обозначены град или гололедные отложения с указанием их диаметра в мм.
Облачность - указаны через наклонную черту общая и нижняя облачность в баллах и высота нижней границы облаков в метрах; квадратными скобками обозначены формы облаков: Ci - перистые, Cs - перисто-слоистые, Cc - перисто-кучевые, Ac - высококучевые, As - высокослоистые, Sc - слоисто-кучевые, Ns - слоисто-дождевые, Cu - кучевые, Cb - кучево-дождевые. Подробнее классификацию облаков см. в Атласе облаков (PDF).
T - Температура воздуха - температура, измеренная на высоте 2 м над землей.
Td - Температура точки росы - температура, при понижении до которой содержащийся в воздухе водяной пар достигнет насыщения.
f - Относительная влажность воздуха - влажноcть воздуха, измеренная на высоте 2 м над землей.
Te - Эффективная температура - температура, которую ощущает одетый по сезону человек в тени. Характеристика душности погоды. При расчете учитывается влияние влажности воздуха и скорости ветра на теплоощущения человека.
Tes - Эффективная температура на солнце - температура, которую ощущает человек, с поправкой на солнечный нагрев. Характеристика знойности погоды. Зависит от высоты солнца над горизонтом, облачности и скорости ветра. Ночью, в пасмурную погоду, а также при ветре 12 м/с и более поправка равна нулю.
P - Атмосферное давление - приведенное к уровню моря атмосферное давление.
Po - Атмосферное давление - измеренное на уровне метеостанции атмосферное давление.
Tmin - Минимальная температура - минимум температуры воздуха на высоте 2 м над землей.
Tmax - Максимальная температура - максимум температуры воздуха на высоте 2 м над землей.
R - Количество осадков - Количество выпавших осадков за период времени, мм. При наведении курсора мыши на число - период времени, за который выпало указанное количество осадков.
R24 - Количество осадков - Количество выпавших осадков за 24 часа, мм.
S - Снежный покров - Высота снежного покрова, см. При наведении курсора мыши на число - состояние снежного покрова и степень покрытия местности в баллах.